FW8496 Weather Reports


Display with metric or nautical units.
time (UTC)temp
F
wind
direction
speed
MPH
gust
MPH
rain 1hr
in
rain 24hr
in
rain mn
in
humidity
%
barometer
mb
20260902172541 78 0 2.0 6.0 0.00 0.00 0.00 38 1026.3
20260902172042 77 30 2.0 8.0 0.00 0.00 0.00 40 1026.4
20260902171605 77 315 4.0 9.0 0.00 0.00 0.00 39 1026.4
20260902171042 77 342 4.0 11.0 0.00 0.00 0.00 38 1026.4
20260902170542 77 339 3.0 11.0 0.00 0.00 0.00 40 1026.4
20260902170056 77 325 3.0 10.0 0.00 0.00 0.00 43 1026.5
20260902165542 76 342 2.0 10.0 0.00 0.00 0.00 46 1026.5
20260902165044 76 348 4.0 11.0 0.00 0.00 0.00 47 1026.4
20260902164557 77 317 4.0 11.0 0.00 0.00 0.00 48 1026.4
20260902164043 77 262 7.0 11.0 0.00 0.00 0.00 47 1026.4
20260902163607 78 309 3.0 8.0 0.00 0.00 0.00 47 1026.4
20260902163054 78 275 3.0 8.0 0.00 0.00 0.00 45 1026.4
20260902162542 77 296 3.0 8.0 0.00 0.00 0.00 49 1026.4
20260902162046 76 313 3.0 7.0 0.00 0.00 0.00 48 1026.2
20260902161553 75 271 2.0 8.0 0.00 0.00 0.00 49 1026.3
20260902161043 75 340 2.0 8.0 0.00 0.00 0.00 50 1026.2
20260902160543 74 296 3.0 8.0 0.00 0.00 0.00 51 1026.2
20260902160100 74 317 1.0 5.0 0.00 0.00 0.00 52 1026.1
20260902155542 73 298 0.0 5.0 0.00 0.00 0.00 53 1026.1
20260902155042 72 316 3.0 5.0 0.00 0.00 0.00 54 1026.1
20260902154554 72 352 2.0 5.0 0.00 0.00 0.00 56 1026.1
20260902154042 71 326 2.0 5.0 0.00 0.00 0.00 57 1026.1
20260902153542 70 313 1.0 6.0 0.00 0.00 0.00 59 1026.1
20260902153051 70 38 2.0 6.0 0.00 0.00 0.00 59 1026.1
20260902152541 69 342 2.0 5.0 0.00 0.00 0.00 61 1026.1
20260902152041 68 348 2.0 6.0 0.00 0.00 0.00 61 1026.1
20260902151552 68 343 2.0 6.0 0.00 0.00 0.00 62 1026.1
20260902151042 67 348 2.0 6.0 0.00 0.00 0.00 64 1026.1
20260902150542 67 325 3.0 6.0 0.00 0.00 0.00 64 1026.2
20260902150051 66 346 2.0 6.0 0.00 0.00 0.00 65 1026.2
20260902145543 66 308 2.0 4.0 0.00 0.00 0.00 66 1026.2
20260902145041 65 308 1.0 4.0 0.00 0.00 0.00 69 1026.3
20260902144554 65 308 1.0 4.0 0.00 0.00 0.00 69 1026.2
20260902144041 64 308 2.0 5.0 0.00 0.00 0.00 71 1026.2
20260902143543 64 308 2.0 6.0 0.00 0.00 0.00 72 1026.1
20260902143057 64 332 3.0 8.0 0.00 0.00 0.00 72 1026.1
20260902142543 64 338 3.0 8.0 0.00 0.00 0.00 73 1026.0
20260902142042 63 17 4.0 9.0 0.00 0.00 0.00 74 1026.0
20260902141605 63 347 5.0 9.0 0.00 0.00 0.00 74 1026.0
20260902141042 63 308 5.0 9.0 0.00 0.00 0.00 75 1025.8
20260902140543 63 326 4.0 6.0 0.00 0.00 0.00 75 1025.7
20260902140048 62 5 2.0 6.0 0.00 0.00 0.00 77 1025.6
20260902135541 62 348 4.0 9.0 0.00 0.00 0.00 77 1025.7
20260902135042 61 343 4.0 9.0 0.00 0.00 0.00 77 1025.5
20260902134549 61 336 3.0 8.0 0.00 0.00 0.00 78 1025.5
20260902134042 60 331 5.0 8.0 0.00 0.00 0.00 79 1025.5
20260902133541 59 331 2.0 4.0 0.00 0.00 0.00 80 1025.3
20260902133056 58 40 2.0 6.0 0.00 0.00 0.00 80 1025.2
20260902132541 58 51 2.0 7.0 0.00 0.00 0.00 82 1025.2
20260902132047 57 84 3.0 7.0 0.00 0.00 0.00 84 1025.1
20260902131600 57 74 2.0 6.0 0.00 0.00 0.00 84 1025.0
20260902131043 57 57 3.0 5.0 0.00 0.00 0.00 84 1025.0
20260902130542 57 29 3.0 6.0 0.00 0.00 0.00 84 1025.0
20260902130053 57 28 3.0 7.0 0.00 0.00 0.00 84 1025.0
20260902125541 57 39 3.0 7.0 0.00 0.00 0.00 84 1025.0
20260902125044 57 11 3.0 5.0 0.00 0.00 0.00 84 1025.0
20260902124602 57 5 3.0 5.0 0.00 0.00 0.00 84 1025.0
20260902124042 57 32 3.0 8.0 0.00 0.00 0.00 83 1025.0
20260902123545 57 42 3.0 8.0 0.00 0.00 0.00 82 1025.0
20260902123120 58 40 4.0 9.0 0.00 0.00 0.00 82 1024.9
20260902122541 58 38 5.0 9.0 0.00 0.00 0.00 82 1024.9
20260902122041 58 54 5.0 9.0 0.00 0.00 0.00 81 1025.1
20260902121555 58 28 3.0 9.0 0.00 0.00 0.00 81 1025.1
20260902121042 58 23 5.0 10.0 0.00 0.00 0.00 81 1025.0
20260902120542 58 46 4.0 10.0 0.00 0.00 0.00 81 1024.9
20260902120054 58 46 5.0 10.0 0.00 0.00 0.00 81 1024.9
20260902115543 58 17 6.0 9.0 0.00 0.03 0.00 82 1024.9
20260902115041 58 24 5.0 9.0 0.00 0.03 0.00 82 1024.9
20260902114550 58 11 5.0 9.0 0.00 0.03 0.00 83 1024.8
20260902114041 58 13 5.0 9.0 0.00 0.03 0.00 84 1024.8
20260902113542 58 23 5.0 8.0 0.00 0.03 0.00 84 1024.8
20260902113048 58 5 4.0 7.0 0.00 0.03 0.00 84 1024.8
20260902112542 58 28 4.0 8.0 0.00 0.03 0.00 84 1025.0
20260902112043 58 14 4.0 8.0 0.00 0.03 0.00 84 1024.9
20260902111549 58 22 4.0 8.0 0.00 0.03 0.00 84 1024.9
20260902111042 58 11 3.0 8.0 0.00 0.03 0.00 84 1024.8
20260902110542 58 28 4.0 7.0 0.00 0.03 0.00 84 1024.8
20260902110057 58 30 4.0 7.0 0.00 0.03 0.00 83 1024.7
20260902105541 59 10 3.0 6.0 0.00 0.03 0.00 83 1024.7
20260902105041 59 40 4.0 6.0 0.00 0.03 0.00 82 1024.7
20260902104551 59 27 4.0 6.0 0.00 0.03 0.00 81 1024.8
20260902104042 59 44 3.0 6.0 0.00 0.03 0.00 80 1024.7
20260902103542 59 66 3.0 6.0 0.00 0.03 0.00 80 1024.8
20260902103047 60 51 4.0 7.0 0.00 0.03 0.00 79 1024.7
20260902102542 60 33 3.0 8.0 0.00 0.03 0.00 79 1024.8
20260902102042 60 25 4.0 10.0 0.00 0.03 0.00 80 1024.9
20260902101554 60 355 5.0 10.0 0.00 0.03 0.00 79 1024.8
20260902101041 61 352 6.0 10.0 0.00 0.03 0.00 79 1024.7
20260902100541 61 347 4.0 6.0 0.00 0.03 0.00 78 1024.8
20260902100048 61 352 4.0 6.0 0.00 0.03 0.00 77 1024.8
20260902095542 61 320 3.0 5.0 0.00 0.09 0.00 77 1024.8
20260902095044 61 106 1.0 3.0 0.00 0.09 0.00 75 1024.8
20260902094554 61 106 1.0 3.0 0.00 0.09 0.00 73 1024.7
20260902094042 61 106 1.0 4.0 0.00 0.09 0.00 71 1024.6
20260902093542 62 106 2.0 4.0 0.00 0.09 0.00 71 1024.7
20260902093108 62 106 2.0 4.0 0.00 0.09 0.00 72 1024.6
20260902092544 62 106 2.0 4.0 0.00 0.09 0.00 72 1024.7
20260902092042 62 106 3.0 4.0 0.00 0.09 0.00 72 1024.7
20260902091615 62 106 1.0 3.0 0.00 0.09 0.00 71 1024.8
20260902091041 62 106 1.0 3.0 0.00 0.09 0.00 72 1024.7
20260902090545 62 106 2.0 3.0 0.00 0.09 0.00 72 1024.8
20260902085541 62 106 2.0 4.0 0.00 0.33 0.00 71 1024.8
20260902085042 62 106 2.0 4.0 0.00 0.33 0.00 71 1024.9
20260902084553 62 106 2.0 4.0 0.00 0.33 0.00 71 1024.8
20260902084042 62 106 2.0 4.0 0.00 0.33 0.00 71 1024.8
20260902083543 63 106 3.0 4.0 0.00 0.33 0.00 71 1024.8
20260902083057 63 106 2.0 6.0 0.00 0.33 0.00 70 1024.9
20260902082542 63 106 3.0 6.0 0.00 0.33 0.00 70 1024.9
20260902082042 63 106 3.0 6.0 0.00 0.33 0.00 70 1025.0
20260902081551 63 106 3.0 4.0 0.00 0.33 0.00 70 1025.0
20260902081042 64 106 2.0 4.0 0.00 0.33 0.00 69 1024.9
20260902080541 64 106 2.0 4.0 0.00 0.33 0.00 69 1025.1
20260902080059 64 106 1.0 4.0 0.00 0.33 0.00 68 1025.1
20260902075542 64 106 3.0 4.0 0.00 0.33 0.00 69 1025.2
20260902075041 65 106 3.0 4.0 0.00 0.33 0.00 69 1025.2
20260902074555 65 106 1.0 3.0 0.00 0.33 0.00 67 1025.2
20260902074042 65 142 0.0 2.0 0.00 0.33 0.00 66 1025.3
20260902073542 65 142 0.0 1.0 0.00 0.33 0.00 66 1025.2
20260902073057 66 0 0.0 2.0 0.00 0.33 0.00 65 1025.3
20260902072541 66 0 0.0 2.0 0.00 0.33 0.00 66 1025.1
20260902072042 66 0 0.0 1.0 0.00 0.33 0.00 65 1025.1
20260902071553 66 0 0.0 1.0 0.00 0.33 0.00 64 1025.1
20260902071042 66 0 0.0 1.0 0.00 0.33 0.00 64 1025.0
20260902070542 66 0 0.0 3.0 0.00 0.33 0.00 63 1025.0
20260902070107 66 0 0.0 3.0 0.00 0.33 0.00 65 1025.0
20260902065542 66 142 1.0 2.0 0.00 0.33 0.00 64 1025.0
20260902065042 66 142 0.0 2.0 0.00 0.33 0.00 66 1024.9
20260902064549 66 0 0.0 3.0 0.00 0.33 0.00 66 1024.9
20260902064041 66 142 0.0 3.0 0.00 0.33 0.00 66 1024.9
20260902063541 66 0 1.0 3.0 0.00 0.33 0.00 66 1024.9
20260902063106 66 0 0.0 2.0 0.00 0.33 0.00 66 1024.9
20260902062542 66 142 0.0 2.0 0.00 0.33 0.00 66 1024.9
20260902062042 66 0 0.0 2.0 0.00 0.33 0.00 66 1024.9
20260902061618 66 142 0.0 3.0 0.00 0.33 0.00 66 1024.9
20260902061042 66 142 1.0 3.0 0.00 0.33 0.00 66 1024.8
20260902060542 66 142 1.0 3.0 0.00 0.33 0.00 66 1024.8
20260902060115 66 142 0.0 2.0 0.00 0.33 0.00 66 1024.8
20260902055542 66 0 0.0 2.0 0.00 0.33 0.33 66 1024.8
20260902055042 66 0 0.0 2.0 0.00 0.33 0.33 66 1024.8
20260902054559 66 0 0.0 2.0 0.00 0.33 0.33 66 1024.9
20260902054041 66 142 1.0 3.0 0.00 0.33 0.33 67 1024.9
20260902053541 66 142 0.0 3.0 0.00 0.33 0.33 68 1024.9
20260902053100 66 142 2.0 3.0 0.00 0.33 0.33 67 1024.9
20260902052545 66 142 1.0 3.0 0.00 0.33 0.33 67 1024.9
20260902052042 66 142 1.0 3.0 0.00 0.33 0.33 67 1024.9
20260902051556 66 142 1.0 4.0 0.00 0.33 0.33 68 1025.0
20260902051042 66 142 1.0 4.0 0.00 0.33 0.33 68 1025.0
20260902050542 66 80 1.0 3.0 0.00 0.33 0.33 69 1025.0
20260902050053 66 80 1.0 2.0 0.00 0.33 0.33 70 1024.9
20260902045541 67 0 0.0 2.0 0.00 0.33 0.33 70 1024.9
20260902045041 67 0 1.0 2.0 0.00 0.33 0.33 69 1024.9
20260902044556 67 0 0.0 2.0 0.00 0.33 0.33 67 1024.9
20260902044043 67 80 0.0 1.0 0.00 0.33 0.33 67 1024.9
20260902043542 67 0 0.0 2.0 0.00 0.33 0.33 68 1025.0
20260902043053 67 0 0.0 2.0 0.00 0.33 0.33 67 1025.1
20260902042544 67 0 0.0 2.0 0.00 0.33 0.33 66 1025.0
20260902042042 67 0 0.0 2.0 0.00 0.33 0.33 65 1025.0
20260902041555 67 80 0.0 2.0 0.00 0.33 0.33 65 1025.0
20260902041042 67 0 0.0 3.0 0.00 0.33 0.33 66 1024.9
20260902040542 67 80 1.0 3.0 0.00 0.33 0.33 66 1024.9
20260902040055 67 0 1.0 3.0 0.00 0.33 0.33 66 1024.9
20260902035542 67 80 1.0 3.0 0.00 0.33 0.33 67 1024.9
20260902035041 67 80 1.0 3.0 0.00 0.33 0.33 67 1024.9
20260902034554 67 80 0.0 3.0 0.00 0.33 0.33 67 1024.7
20260902034041 67 80 0.0 3.0 0.00 0.33 0.33 67 1024.7
20260902033541 67 80 0.0 5.0 0.00 0.33 0.33 67 1024.6
20260902033050 67 80 1.0 5.0 0.00 0.33 0.33 67 1024.5
20260902032544 67 80 1.0 3.0 0.00 0.33 0.33 66 1024.5
20260902032042 67 80 2.0 3.0 0.00 0.33 0.33 66 1024.4
20260902031552 67 80 1.0 5.0 0.00 0.33 0.33 65 1024.4
20260902031042 67 80 2.0 7.0 0.00 0.33 0.33 65 1024.3
20260902030542 68 80 3.0 7.0 0.00 0.33 0.33 64 1024.2
20260902030055 68 80 2.0 6.0 0.00 0.33 0.33 63 1024.0
20260902025543 68 94 1.0 5.0 0.00 0.33 0.33 63 1024.0
20260902025042 68 0 2.0 7.0 0.00 0.33 0.33 63 1023.9
20260902024552 68 62 3.0 8.0 0.00 0.33 0.33 62 1023.9
20260902024043 68 48 3.0 8.0 0.00 0.33 0.33 62 1023.8
20260902023541 68 74 4.0 8.0 0.00 0.33 0.33 63 1023.9
20260902023050 68 56 3.0 7.0 0.00 0.33 0.33 63 1023.9
20260902022541 68 61 2.0 5.0 0.00 0.33 0.33 64 1023.8
20260902022044 68 49 2.0 5.0 0.00 0.33 0.33 64 1023.7
20260902021548 68 52 3.0 5.0 0.00 0.33 0.33 63 1023.7
20260902021042 68 46 3.0 6.0 0.00 0.33 0.33 62 1023.7
20260902020542 68 45 3.0 6.0 0.00 0.33 0.33 61 1023.7
20260902020054 68 33 3.0 6.0 0.00 0.33 0.33 61 1023.7
20260902015546 69 26 2.0 5.0 0.00 0.33 0.33 63 1023.6
20260902015045 69 325 3.0 5.0 0.00 0.33 0.33 63 1023.6
20260902014556 69 348 3.0 6.0 0.00 0.33 0.33 63 1023.5
20260902014043 70 5 3.0 9.0 0.00 0.33 0.33 62 1023.4
20260902013541 70 360 3.0 9.0 0.00 0.33 0.33 62 1023.4
20260902013053 71 335 4.0 9.0 0.00 0.33 0.33 61 1023.4
20260902012541 71 318 5.0 10.0 0.00 0.33 0.33 60 1023.4
20260902012041 72 323 5.0 11.0 0.00 0.33 0.33 59 1023.4
20260902011549 73 333 6.0 11.0 0.00 0.33 0.33 57 1023.4
20260902011044 73 329 4.0 9.0 0.00 0.33 0.33 56 1023.4
20260902010541 74 352 1.0 4.0 0.00 0.33 0.33 54 1023.2
20260902010058 74 30 1.0 4.0 0.00 0.33 0.33 51 1023.1
20260902005542 74 30 1.0 4.0 0.00 0.34 0.33 51 1023.1
20260902005042 75 322 1.0 4.0 0.00 0.34 0.33 51 1023.1
20260902004555 75 322 1.0 5.0 0.00 0.34 0.33 51 1023.1
20260902004041 75 322 2.0 6.0 0.00 0.34 0.33 50 1023.2
20260902003541 75 78 2.0 8.0 0.00 0.34 0.33 51 1023.2
20260902003054 76 360 3.0 8.0 0.00 0.34 0.33 51 1023.2
20260902002542 76 360 3.0 8.0 0.00 0.34 0.33 51 1023.3
20260902002041 76 321 3.0 5.0 0.00 0.34 0.33 51 1023.3
20260902001551 75 69 2.0 5.0 0.00 0.34 0.33 51 1023.3
20260902001042 75 352 1.0 7.0 0.00 0.34 0.33 52 1023.4
20260902000542 75 352 3.0 7.0 0.00 0.34 0.33 51 1023.4
20260902000055 75 37 3.0 8.0 0.00 0.34 0.33 53 1023.4
20260901235544 74 48 3.0 10.0 0.00 0.34 0.33 55 1023.4
20260901235041 74 44 6.0 10.0 0.00 0.34 0.33 55 1023.5
20260901234557 74 346 6.0 10.0 0.00 0.34 0.33 54 1023.5
20260901234046 75 360 4.0 9.0 0.00 0.34 0.33 53 1023.6
20260901233543 76 360 5.0 11.0 0.00 0.34 0.33 52 1023.5
20260901233106 77 360 4.0 11.0 0.00 0.34 0.33 51 1023.5
20260901232541 78 321 5.0 10.0 0.00 0.34 0.33 49 1023.5
20260901232042 80 338 4.0 12.0 0.00 0.34 0.33 46 1023.4
20260901231552 82 5 6.0 12.0 0.00 0.34 0.33 43 1023.4
20260901231042 84 327 5.0 11.0 0.00 0.34 0.33 43 1023.4
20260901230541 86 352 6.0 11.0 0.00 0.34 0.33 40 1023.5
20260901230100 85 277 3.0 9.0 0.00 0.34 0.33 33 1023.3
20260901225543 85 305 2.0 7.0 0.00 0.34 0.33 34 1023.3
20260901225042 84 205 1.0 7.0 0.00 0.34 0.33 32 1023.4
20260901224559 84 225 2.0 9.0 0.00 0.34 0.33 33 1023.5
20260901224041 83 324 5.0 10.0 0.00 0.34 0.33 34 1023.6
20260901223542 83 266 5.0 12.0 0.00 0.34 0.33 35 1023.6
20260901223108 82 306 5.0 12.0 0.00 0.34 0.33 37 1023.7
20260901222541 82 158 1.0 8.0 0.00 0.34 0.33 36 1023.7
20260901222043 82 257 3.0 13.0 0.00 0.34 0.33 36 1023.7
20260901221555 83 304 4.0 13.0 0.00 0.34 0.33 36 1023.9
20260901221042 83 232 5.0 13.0 0.00 0.34 0.33 34 1023.9
20260901220541 84 340 4.0 9.0 0.00 0.34 0.33 35 1023.9
20260901220054 84 286 2.0 10.0 0.00 0.34 0.33 36 1024.0
20260901215542 85 259 4.0 10.0 0.00 0.34 0.33 34 1024.0
20260901215042 85 254 2.0 9.0 0.00 0.34 0.33 34 1024.0
20260901214556 85 205 4.0 12.0 0.00 0.34 0.33 34 1024.0
20260901214042 85 240 4.0 12.0 0.00 0.34 0.33 35 1024.0
20260901213542 84 215 4.0 11.0 0.00 0.34 0.33 35 1024.2
20260901213058 84 282 6.0 11.0 0.00 0.34 0.33 35 1024.2
20260901212542 84 222 5.0 11.0 0.00 0.34 0.33 35 1024.2
20260901212042 83 225 5.0 11.0 0.00 0.34 0.33 35 1024.2
20260901211554 83 230 3.0 10.0 0.00 0.34 0.33 38 1024.3
20260901211041 82 254 5.0 14.0 0.00 0.34 0.33 38 1024.3
20260901210541 82 167 6.0 14.0 0.00 0.34 0.33 38 1024.4
20260901210106 82 302 5.0 12.0 0.00 0.34 0.33 38 1024.5
20260901205543 82 221 4.0 12.0 0.00 0.34 0.33 39 1024.7
20260901205042 82 299 5.0 12.0 0.00 0.34 0.33 39 1024.6
20260901204556 83 244 4.0 12.0 0.00 0.34 0.33 38 1024.6
20260901204042 83 253 6.0 12.0 0.00 0.34 0.33 37 1024.7
20260901203542 84 249 7.0 10.0 0.00 0.34 0.33 37 1024.7
20260901203108 84 216 4.0 10.0 0.00 0.34 0.33 38 1024.7
20260901202544 84 235 4.0 11.0 0.00 0.34 0.33 40 1024.8
20260901202042 84 167 3.0 13.0 0.00 0.34 0.33 40 1024.8
20260901201600 84 246 4.0 13.0 0.00 0.34 0.33 39 1024.9
20260901201042 84 196 4.0 10.0 0.00 0.34 0.33 38 1024.9
20260901200542 84 209 5.0 10.0 0.00 0.34 0.33 38 1024.9
20260901200057 83 222 4.0 11.0 0.00 0.34 0.33 38 1025.1
20260901195545 83 247 3.0 11.0 0.00 0.34 0.33 38 1025.1
20260901195045 83 194 4.0 10.0 0.00 0.34 0.33 38 1025.1
20260901194606 82 235 3.0 10.0 0.00 0.34 0.33 38 1025.1
20260901194042 83 241 5.0 10.0 0.00 0.34 0.33 37 1025.2
20260901193542 83 208 1.0 9.0 0.00 0.34 0.33 37 1025.3
20260901193059 83 241 3.0 9.0 0.00 0.34 0.33 37 1025.3
20260901192544 83 229 3.0 11.0 0.00 0.34 0.33 36 1025.3
20260901192042 83 245 4.0 11.0 0.00 0.34 0.33 38 1025.5
20260901191607 82 124 4.0 11.0 0.00 0.34 0.33 40 1025.5
20260901191046 82 254 2.0 11.0 0.00 0.34 0.33 39 1025.6
20260901190542 82 208 3.0 11.0 0.00 0.34 0.33 39 1025.6
20260901190109 81 232 3.0 8.0 0.00 0.34 0.33 42 1025.6
20260901185546 80 190 1.0 7.0 0.00 0.34 0.33 41 1025.7
20260901185049 80 219 4.0 7.0 0.00 0.34 0.33 42 1025.8
20260901184549 79 78 1.0 8.0 0.00 0.34 0.33 43 1025.9
20260901184043 79 0 2.0 8.0 0.00 0.34 0.33 42 1025.9
20260901183542 80 261 2.0 6.0 0.00 0.34 0.33 43 1025.9
20260901183056 80 306 3.0 6.0 0.00 0.34 0.33 45 1026.0
20260901182542 79 277 1.0 4.0 0.00 0.34 0.33 45 1025.9
20260901182042 78 113 1.0 5.0 0.00 0.34 0.33 46 1026.0
20260901181554 77 132 1.0 5.0 0.00 0.34 0.33 47 1025.9
20260901181041 76 273 1.0 5.0 0.00 0.34 0.33 49 1026.0
20260901180541 74 352 0.0 5.0 0.00 0.34 0.33 54 1026.1
20260901180049 74 360 3.0 6.0 0.00 0.34 0.33 57 1026.3
20260901175544 74 302 2.0 7.0 0.00 0.34 0.33 55 1026.3
20260901175042 74 298 2.0 7.0 0.00 0.34 0.33 58 1026.5
20260901174621 73 0 1.0 7.0 0.00 0.34 0.33 54 1026.5
20260901174042 73 238 2.0 7.0 0.00 0.34 0.33 56 1026.5
20260901173542 72 256 1.0 7.0 0.00 0.34 0.33 59 1026.5
20260901173102 70 326 0.0 5.0 0.00 0.34 0.33 65 1026.5